Temp
75 74 73 72 72 69 69 69 71 71 71 71 71 70 69 67 66 67 66 66 67 65
75 76 74 72 73 70 72 71 72 72 71 72 72 70 69 66 67 67 67 66 66 66
75 76 72 73 72 72 72 71 71 71 72 71 70 70 69 68 68 66 66 66 66 65
74 73 73 72 73 72 72 72 73 73 72 72 70 70 68 67 68 67 66 65 64 63
73 72 72 72 72 73 73 74 72 72 71 72 72 70 69 70 69 69 65 64 62 63
71 72 72 72 73 73 73 71 71 72 70 71 71 71 71 71 68 66 66 65 64 64
72 72 71 72 73 73 74 72 70 71 72 72 71 73 71 68 67 67 68 66 64 64
74 73 74 72 71 72 73 72 71 70 70 71 70 70 67 69 68 68 66 64 64 63
75 70 72 72 71 71 71 69 69 69 69 69 69 52 56 63 68 68 66 63 63 63
74 73 73 72 71 68 68 67 66 67 69 66 63 52 52 55 68 66 66 65 65 65
76 74 73 71 69 68 68 65 64 65 68 65 62 50 49 51 67 65 65 66 65 64
77 73 73 70 68 68 68 66 64 65 62 64 63 47 47 54 67 64 64 65 64 63
78 75 70 70 68 69 68 66 63 62 63 58 63 47 46 53 66 63 62 62 59 51
79 76 74 70 69 69 68 67 64 64 63 66 64 58 46 48 66 63 61 62 62 58
MSLP
1003.42 1003.67 1003.82 1004.14 1004.32 1004.57 1004.73 1004.94 1005.06 1005.22 1005.52 1005.67 1005.72 1005.90 1006.26 1006.56 1006.77 1006.93 1006.87 1006.94 1007.02 1007.10
1003.31 1003.55 1003.86 1004.13 1004.19 1004.54 1004.64 1004.82 1004.94 1005.20 1005.50 1005.54 1005.55 1005.90 1006.23 1006.32 1006.46 1006.66 1006.73 1006.76 1006.97 1007.14
1003.25 1003.43 1003.88 1004.14 1004.30 1004.49 1004.63 1004.67 1004.93 1005.32 1005.44 1005.58 1005.78 1006.01 1006.18 1006.22 1006.19 1006.83 1006.89 1007.08 1007.25 1007.48
1003.24 1003.59 1003.93 1004.07 1004.26 1004.50 1004.54 1004.66 1004.98 1005.25 1005.39 1005.57 1005.94 1006.12 1006.15 1006.33 1006.42 1006.86 1007.11 1007.42 1007.71 1007.85
1003.26 1003.68 1003.92 1004.14 1004.35 1004.51 1004.51 1004.65 1004.90 1005.17 1005.53 1005.66 1005.88 1006.19 1006.22 1006.32 1006.38 1006.72 1007.15 1007.56 1007.82 1008.09
1003.35 1003.75 1003.92 1004.09 1004.21 1004.36 1004.56 1004.64 1004.99 1005.17 1005.57 1005.78 1006.03 1006.21 1006.24 1006.46 1006.74 1006.93 1007.30 1007.55 1007.78 1007.94
1003.28 1003.71 1003.95 1004.19 1004.26 1004.38 1004.54 1004.56 1005.04 1005.27 1005.57 1005.82 1006.06 1006.13 1006.53 1006.99 1007.19 1007.38 1007.54 1007.76 1008.12 1008.47
1003.17 1003.73 1003.81 1004.12 1004.47 1004.66 1004.78 1005.05 1005.17 1005.71 1006.02 1006.33 1006.60 1006.95 1007.20 1007.32 1007.41 1007.46 1007.77 1008.23 1008.57 1008.88
1003.17 1003.78 1003.91 1004.23 1004.74 1004.98 1005.15 1005.51 1005.73 1006.19 1006.56 1006.87 1007.27 1007.61 1007.75 1007.67 1007.60 1007.72 1008.12 1008.78 1009.11 1009.41
1003.22 1003.73 1004.01 1004.37 1004.83 1005.27 1005.57 1005.94 1006.35 1006.76 1006.94 1007.41 1007.96 1008.16 1008.29 1008.22 1007.93 1008.23 1008.48 1008.84 1009.22 1009.50
1002.93 1003.53 1004.04 1004.57 1004.97 1005.50 1005.91 1006.36 1006.71 1007.00 1007.16 1007.79 1008.42 1008.69 1008.72 1008.64 1008.43 1008.58 1008.95 1009.21 1009.52 1009.90
1002.65 1003.35 1003.94 1004.64 1005.08 1005.52 1006.00 1006.56 1007.01 1007.34 1007.64 1008.05 1008.63 1008.99 1009.01 1008.91 1008.70 1009.05 1009.46 1009.83 1010.19 1010.45
1002.30 1003.09 1003.90 1004.62 1005.08 1005.58 1006.06 1006.58 1007.31 1007.68 1008.02 1008.31 1008.83 1009.23 1009.38 1009.23 1009.17 1009.71 1010.12 1010.51 1010.90 1011.10
1001.97 1002.87 1003.70 1004.60 1005.13 1005.68 1006.24 1006.78 1007.41 1007.89 1008.31 1008.32 1008.90 1009.52 1009.71 1009.56 1009.43 1010.09 1010.47 1010.79 1011.32 1011.93
Wind_Speed
5 4 1 3 1 1 2 3 4 4 3 3 4 4 4 3 4 4 4 6 4 4
5 3 2 4 1 1 3 3 4 4 4 4 3 5 5 4 4 3 3 5 3 2
5 2 4 2 3 3 2 4 5 4 3 2 3 3 3 2 3 4 2 3 5 4
5 3 5 3 3 5 3 6 6 4 4 3 5 4 4 3 4 5 5 4 6 5
5 5 4 5 4 5 4 3 4 4 5 4 4 4 2 4 5 6 8 6 5 7
7 5 5 4 4 4 3 3 7 4 7 5 5 4 3 3 6 6 5 4 4 6
7 6 5 5 4 4 3 3 9 5 5 5 5 3 6 7 5 4 3 4 7 6
7 8 6 5 6 4 3 5 7 9 7 6 5 6 5 4 3 2 6 6 8 6
6 8 5 6 7 5 5 6 8 8 6 3 6 9 8 6 2 4 6 8 8 6
8 8 6 6 7 8 6 7 7 5 4 8 6 9 8 10 3 5 6 7 7 7
11 9 7 7 8 6 6 6 5 4 7 8 5 8 7 8 4 6 7 8 8 7
12 10 8 8 8 7 7 7 4 5 4 8 5 6 7 7 7 8 10 9 8 7
13 11 8 9 8 5 6 7 7 5 4 6 7 3 7 8 7 9 7 8 8 12
10 10 10 9 7 7 7 8 8 7 4 5 6 4 8 8 5 7 7 5 6 4
Wind_Direction
149 191 213 87 224 265 93 153 182 145 167 179 207 173 162 170 189 221 229 222 204 232
151 208 129 125 85 100 156 156 164 154 162 192 151 131 169 192 194 172 199 216 153 46
138 197 97 106 130 144 201 181 112 125 177 168 174 146 138 221 163 117 96 56 58 21
144 131 112 115 119 118 249 135 135 154 156 146 155 150 172 169 166 132 111 59 69 47
132 110 100 117 133 133 180 179 134 147 158 144 124 161 171 205 163 158 128 155 175 145
117 116 119 106 112 173 165 241 156 132 139 143 142 138 177 111 72 74 79 88 100 137
122 126 144 126 126 132 158 324 119 131 90 117 153 135 83 82 80 87 123 92 68 57
136 135 144 157 131 143 146 54 117 88 70 56 55 50 73 97 143 148 97 86 75 78
124 134 129 132 123 134 110 88 76 89 100 193 89 67 37 8 107 82 100 111 110 111
139 137 144 112 128 103 112 116 114 116 170 93 100 76 44 13 88 92 92 105 109 98
149 145 158 136 122 116 117 114 111 123 123 106 105 67 42 5 90 97 103 100 91 92
152 142 153 143 140 139 143 135 122 112 84 117 123 56 18 353 96 86 86 88 93 99
141 149 146 134 137 128 130 136 120 109 104 120 130 66 16 359 107 96 97 83 76 75
124 117 113 123 133 132 126 119 118 123 121 130 128 99 30 11 121 119 119 117 104 100